Weather History for Kendall, FL

Change the Weather History Date:

Tuesday, May 6, 2014

  Actual Average Record
Temperature  
Mean Temperature 76 °F -  
Max Temperature 88 °F 85 °F 91 °F (2006)
Min Temperature 66 °F 62 °F 53 °F (1997)
Cooling Degree Days 12    
Growing Degree Days 26 (Base 50)    
Moisture  
Dew Point 64 °F    
Average Humidity 61    
Maximum Humidity 87    
Minimum Humidity 41    
Precipitation  
Precipitation 0.00 in - - ()
Sea Level Pressure  
Sea Level Pressure 30.02 in    
Wind  
Wind Speed 6 mph (East)    
Max Wind Speed 15 mph    
Max Gust Speed 20 mph    
Visibility 10 miles    
Events      
Averages and records for this station are not official NWS values.
T = Trace of Precipitation, MM = Missing Value Source: NWS Daily Summary

Daily Weather History Graph

Daily Weather History Graph

Search for Another Location

Airport:

Trip Planner

Search our weather history database for the weather conditions in past years. The results will help you decide how hot, cold, wet, or windy it might be!

Date:

Astronomy

May. 06, 2014 Rise Set
Actual Time 6:41 AM EDT 7:55 PM EDT
Civil Twilight 6:17 AM EDT 8:19 PM EDT
Nautical Twilight 5:48 AM EDT 8:48 PM EDT
Astronomical Twilight 5:18 AM EDT 9:18 PM EDT
Moon 12:49 PM EDT (5/6) 1:18 AM EDT (5/6)
Length of Visible Light 14h 02m
Length of Day
13h 13m
Waxing Crescent, 46% of the Moon is Illuminated
May 6
Waxing Crescent
May 6
First Quarter
May 14
Full
May 21
Last Quarter
May 28
New

Hourly Weather History & Observations

Time (EDT) Temp. Heat Index Dew Point Humidity Pressure Visibility Wind Dir Wind Speed Gust Speed Precip Events Conditions
12:53 AM 72.0 °F - 62.1 °F 71% 30.04 in 10.0 mi Calm Calm - N/A   Partly Cloudy
1:53 AM 66.9 °F - 62.1 °F 84% 30.02 in 10.0 mi West 3.5 mph - N/A   Partly Cloudy
2:53 AM 66.9 °F - 63.0 °F 87% 30.00 in 10.0 mi Calm Calm - N/A   Partly Cloudy
3:53 AM 68.0 °F - 64.0 °F 87% 29.99 in 10.0 mi WNW 3.5 mph - N/A   Clear
7:53 AM 72.0 °F - 66.9 °F 84% 30.03 in 10.0 mi Calm Calm - N/A   Clear
8:53 AM 80.1 °F 81.9 °F 64.9 °F 60% 30.04 in 10.0 mi Calm Calm - N/A   Clear
10:53 AM 84.9 °F 85.9 °F 63.0 °F 48% 30.04 in 10.0 mi East 12.7 mph 18.4 mph N/A   Scattered Clouds
11:53 AM 86.0 °F 86.8 °F 63.0 °F 46% 30.04 in 10.0 mi SE 9.2 mph - N/A   Clear
12:53 PM 86.0 °F 86.3 °F 62.1 °F 44% 30.03 in 10.0 mi East 12.7 mph 18.4 mph N/A   Clear
1:53 PM 87.1 °F 87.8 °F 63.0 °F 44% 30.02 in 10.0 mi East 15.0 mph 19.6 mph N/A   Clear
2:53 PM 87.1 °F 87.0 °F 61.0 °F 41% 30.00 in 10.0 mi East 10.4 mph - N/A   Clear
3:53 PM 86.0 °F 86.1 °F 61.0 °F 43% 29.99 in 10.0 mi ESE 12.7 mph - N/A   Clear
4:53 PM 86.0 °F 86.8 °F 63.0 °F 46% 29.99 in 10.0 mi East 12.7 mph - N/A   Clear
5:53 PM 84.0 °F 84.5 °F 62.1 °F 47% 29.99 in 10.0 mi ESE 15.0 mph - N/A   Clear
6:53 PM 82.0 °F 83.4 °F 64.0 °F 54% 29.99 in 10.0 mi East 15.0 mph - N/A   Clear
7:53 PM 79.0 °F - 66.0 °F 64% 30.00 in 10.0 mi East 13.8 mph - N/A   Clear
8:53 PM 78.1 °F - 64.9 °F 64% 30.02 in 10.0 mi East 11.5 mph - N/A   Clear
9:53 PM 75.9 °F - 64.9 °F 69% 30.02 in 10.0 mi East 9.2 mph - N/A   Clear
10:53 PM 75.9 °F - 64.9 °F 69% 30.04 in 10.0 mi East 9.2 mph - N/A   Clear
11:53 PM 75.0 °F - 66.0 °F 73% 30.03 in 10.0 mi ESE 6.9 mph - N/A   Clear